Casablanca, Morocco

2:11 PM WET on May 29, 2017 (GMT +0000)
Casablanca

Weather History for GMMC - November, 2011

Change the Weather History Date:

Monday, November 21, 2011

  Actual Average (GMMN) Record (GMMN)
Temperature  
Mean Temperature 62 °F -  
Max Temperature 66 °F 64 °F 79 °F (2014)
Min Temperature 57 °F 46 °F 41 °F (1998)
Degree Days  
Heating Degree Days 4    
Growing Degree Days 12 (Base 50)    
Moisture  
Dew Point 57 °F    
Average Humidity 82    
Maximum Humidity 88    
Minimum Humidity 65    
Precipitation  
Precipitation 0.04 in 0.10 in - ()
Sea Level Pressure  
Sea Level Pressure 29.95 in    
Wind  
Wind Speed - ()    
Max Wind Speed -    
Max Gust Speed -    
Visibility 5.6 miles    
Events Rain    
Averages and records for this station are not official NWS values.
T = Trace of Precipitation, MM = Missing Value Source: Averaged Metar Reports

Daily Weather History Graph

Daily Weather History Graph

Search for Another Location

Airport or City:

Trip Planner

Search our weather history database for the weather conditions in past years. The results will help you decide how hot, cold, wet, or windy it might be!

Date:

Astronomy

Nov. 21, 2011 Rise Set
Actual Time 7:07 AM WET 5:25 PM WET
Civil Twilight 6:40 AM WET 5:51 PM WET
Nautical Twilight 6:10 AM WET 6:22 PM WET
Astronomical Twilight 5:40 AM WET 6:51 PM WET
Moon 2:40 AM WET (11/21) 2:30 PM WET (11/21)
Length of Visible Light 11h 11m
Length of Day
10h 17m
Waning Crescent, 20% of the Moon is Illuminated
Nov 21
Waning Crescent
Nov 25
New
Dec 2
First Quarter
Dec 10
Full
Dec 18
Last Quarter

Hourly Weather History & Observations

Time (WET) Temp. Dew Point Humidity Pressure Visibility Wind Dir Wind Speed Gust Speed Precip Events Conditions
12:00 AM 60 °F 56 °F 82% 29.88 in 6 mi Calm Calm - - Rain Light Rain Showers
12:00 AM 60.8 °F 55.4 °F 82% 29.83 in - North - - N/A   Partly Cloudy
1:00 AM 60.8 °F 55.4 °F 82% 29.83 in - North - - N/A   Partly Cloudy
2:00 AM 60.8 °F 55.4 °F 82% 29.83 in - North - - N/A   Partly Cloudy
3:00 AM 60 °F 55 °F 77% 29.88 in 6 mi Calm Calm - -   Mostly Cloudy
3:00 AM 60.8 °F 55.4 °F 82% 29.83 in - North - - N/A   Partly Cloudy
4:00 AM 60.8 °F 55.4 °F 82% 29.86 in - North - - N/A   Partly Cloudy
5:00 AM 60.8 °F 55.4 °F 82% 29.86 in - North - - N/A   Partly Cloudy
6:00 AM 61 °F 57 °F 82% 29.92 in 6 mi Calm Calm - - Rain Light Rain
6:00 AM 60.8 °F 57.2 °F 88% 29.89 in - North - - N/A   Partly Cloudy
7:00 AM 62.6 °F 57.2 °F 82% 29.89 in - North - - N/A   Partly Cloudy
8:00 AM 59.0 °F 55.4 °F 88% 29.92 in - North - - N/A   Partly Cloudy
9:00 AM 60.8 °F 57.2 °F 88% 29.95 in - North - - N/A   Partly Cloudy
10:00 AM 60.8 °F 57.2 °F 88% 29.98 in - North - - N/A Rain Light Rain
11:00 AM 62.6 °F 59.0 °F 88% 29.98 in - North - - N/A   Scattered Clouds
12:00 PM 64.4 °F 59.0 °F 83% 30.01 in - North - - N/A   Mostly Cloudy
1:00 PM 66.2 °F 59.0 °F 78% 29.98 in - North - - N/A   Mostly Cloudy
2:00 PM 66.2 °F 59.0 °F 78% 29.98 in - North - - N/A   Mostly Cloudy
3:00 PM 66.2 °F 59.0 °F 78% 29.98 in - North - - N/A   Mostly Cloudy
4:00 PM 64.4 °F 59.0 °F 83% 29.98 in - North - - N/A   Scattered Clouds
5:00 PM 64.4 °F 59.0 °F 83% 30.01 in - North - - N/A   Mostly Cloudy
6:00 PM 64 °F 55 °F 65% 30.04 in 5 mi Calm Calm - - Rain Light Rain
6:00 PM 64.4 °F 55.4 °F 73% 30.01 in - North - - N/A Rain Light Rain
7:00 PM 60.8 °F 57.2 °F 88% 30.04 in - North - - N/A   Mostly Cloudy
8:00 PM 62.6 °F 57.2 °F 82% 30.04 in - North - - N/A   Scattered Clouds
9:00 PM 62 °F 55 °F 73% 30.09 in 5 mi Calm Calm - -   Partly Cloudy
9:00 PM 62.6 °F 55.4 °F 77% 30.06 in - North - - N/A   Partly Cloudy
10:00 PM 62.6 °F 57.2 °F 82% 30.06 in - North - - N/A   Partly Cloudy
11:00 PM 59.0 °F 55.4 °F 88% 30.06 in - North - - N/A   Scattered Clouds